Hourly Data Report for May 04, 2012

All times are specified in Local Standard Time (LST). Add 1 hour to adjust for Daylight Saving Time where and when it is observed.

SAULT STE MARIE A
ONTARIO

46°29'06.000" N
84°30'35.000" W
192.00 m
6057591
71260
YAM

Related Data

No related data is available for this station

Download Data

Hourly Data (May 2012)
Hourly Data Report for May 4, 2012
Temp Definition
°C
Dew Point Temp Definition
°C
Rel Hum Definition
%
Wind Dir Definition
10's deg

Wind Spd Definition
km/h
Visibility Definition
km
Stn Press Definition
kPa
Hmdx Definition


Wind Chill Definition


Weather Definition


TIME
00:00 Legend Double Dagger 10.7 10.7 100   0 1.6 98.96     Fog
01:00 Legend Double Dagger 8.1 8.1 100 29 18 1.0 98.93     Fog
02:00 Legend Double Dagger 7.6 7.6 100 29 17 1.2 98.98     Fog
03:00 Legend Double Dagger 6.4 6.4 100 30 23 1.2 99.07     Fog
04:00 Legend Double Dagger 6.3 6.3 100 30 15 0.8 99.13     Fog
05:00 Legend Double Dagger 6.7 6.7 100 31 13 10.0 99.23     LegendNANA
06:00 Legend Double Dagger 6.1 6.1 100 30 20 10.0 99.32     LegendNANA
07:00 Legend Double Dagger 8.6 8.5 99 32 11 10.0 99.40     Mainly Clear
08:00 Legend Double Dagger 9.8 7.8 87 3 18 10.0 99.47     LegendNANA
09:00 Legend Double Dagger 11.2 7.7 79 2 17 10.0 99.52     LegendNANA
10:00 Legend Double Dagger 12.3 7.0 70 8 15 10.0 99.54     Mainly Clear
11:00 Legend Double Dagger 12.9 7.2 68 24 16 10.0 99.58     LegendNANA
12:00 Legend Double Dagger 15.8 7.9 59 31 19 10.0 99.56     LegendNANA
13:00 Legend Double Dagger 14.2 6.6 60 29 28 10.0 99.59     Clear
14:00 Legend Double Dagger 14.8 6.9 59 28 27 10.0 99.57     LegendNANA
15:00 Legend Double Dagger 13.2 6.1 62 29 24 10.0 99.61     LegendNANA
16:00 Legend Double Dagger 12.7 6.3 65 29 23 10.0 99.58     Mainly Clear
17:00 Legend Double Dagger 12.1 5.8 65 27 23 10.0 99.59     LegendNANA
18:00 Legend Double Dagger 9.9 5.5 74 29 21 10.0 99.61     LegendNANA
19:00 Legend Double Dagger 11.2 6.8 74 30 14 10.0 99.61     Mainly Clear
20:00 Legend Double Dagger 7.9 5.0 82   0 10.0 99.64     LegendNANA
21:00 Legend Double Dagger 10.6 4.3 65 7 22 10.0 99.75     LegendNANA
22:00 Legend Double Dagger 9.7 3.7 66 7 24 10.0 99.81     Mainly Clear
23:00 Legend Double Dagger 8.9 3.1 67 7 29 10.0 99.82     LegendNANA

Notes on Data Quality.

Legend

  • E = Estimated
  • M = Missing
  • NA = Not Available
  • ‡ = Partner data that is not subject to review by the National Climate Archives
Date modified: